Theta_e
287 287 287 286 286 287 287 288 289 291 292 294 297 299 300 301 301 301 301 301 301 299 297 295 295 296 296 296 296 296 297 297 297 294 293 291 289 288 287 287 287 287 285
287 286 286 286 285 286 286 286 287 288 290 292 294 297 298 298 299 299 299 300 300 299 297 297 295 295 295 296 296 295 296 296 297 293 291 290 288 287 286 286 287 284 283
288 287 286 285 285 285 285 285 286 286 287 289 291 293 295 297 298 298 298 297 298 299 298 296 296 295 295 295 295 295 295 295 295 294 290 290 287 287 286 284 284 285 284
289 288 286 285 285 285 284 285 285 285 286 287 288 290 292 294 295 296 296 296 296 297 297 297 296 295 295 295 295 294 294 294 293 293 290 288 288 287 286 285 285 286 287
286 287 287 286 285 284 284 284 284 284 285 285 286 287 290 291 292 292 294 294 295 295 296 296 296 295 294 295 294 294 293 293 292 292 290 289 287 286 287 287 287 286 286
284 285 285 286 285 285 284 284 284 284 284 284 284 285 286 288 289 290 291 292 293 294 294 295 295 294 294 294 294 293 293 292 291 291 290 289 288 287 286 287 287 287 287
283 284 284 284 286 285 285 284 284 284 284 284 284 284 284 285 287 288 290 291 291 292 293 293 294 293 293 293 292 292 292 291 291 291 290 289 288 287 286 287 287 287 289
282 282 283 283 283 285 285 284 284 284 284 284 284 284 284 284 285 287 289 290 290 290 291 291 292 293 293 293 292 292 291 290 290 290 291 290 289 288 287 287 287 287 288
282 282 282 282 282 283 284 284 284 284 284 284 284 284 284 284 285 285 288 289 290 291 290 290 291 292 292 293 292 291 290 289 289 288 288 288 288 288 286 287 287 287 286
281 281 282 281 282 282 284 284 284 284 284 284 284 284 284 284 284 285 286 287 288 290 290 290 291 291 291 291 291 291 290 289 288 287 287 286 286 286 286 287 287 287 287
279 279 280 280 281 282 283 283 283 284 284 284 284 284 284 284 284 284 285 287 288 289 289 290 291 290 291 291 291 291 290 290 287 286 285 284 284 285 286 286 286 287 287
276 277 278 278 279 281 282 282 283 283 284 284 284 284 284 284 284 284 284 286 287 288 289 290 290 290 290 290 290 290 290 289 287 285 283 282 282 282 284 285 286 287 286
274 274 274 275 276 278 281 282 282 283 283 283 283 284 284 284 284 284 284 285 286 288 288 289 290 290 290 290 290 290 289 288 286 284 283 282 281 282 283 284 285 285 285
271 271 272 272 274 276 278 281 282 283 283 283 283 284 284 284 284 283 284 284 283 285 287 288 289 289 290 289 290 289 289 288 286 285 283 282 281 281 281 282 282 284 284
268 269 269 271 272 274 277 280 282 282 283 283 284 284 284 284 284 284 283 283 283 284 285 286 287 288 289 289 289 289 288 287 286 285 284 283 281 281 280 280 281 282 282
266 267 268 269 270 272 274 277 281 283 283 283 284 284 284 284 284 283 283 283 283 284 285 286 287 287 288 288 288 287 287 287 286 285 284 283 282 280 280 280 281 281 282
265 265 266 267 268 270 272 274 277 280 282 284 284 283 283 283 283 283 283 283 283 284 284 285 287 287 287 288 288 287 286 286 286 285 284 283 282 280 280 280 281 282 282
263 264 264 265 266 267 269 270 273 277 279 280 282 283 283 283 283 283 283 283 282 282 283 284 285 287 287 287 288 287 286 286 286 285 284 284 282 281 280 281 281 282 282
262 263 263 264 266 267 268 269 271 273 275 277 279 280 282 282 282 282 282 282 282 282 282 283 285 286 287 287 287 288 287 286 286 285 284 284 283 281 281 281 282 282 282
262 262 263 263 263 264 265 268 269 270 272 274 275 277 278 279 279 280 280 281 281 281 281 282 284 286 287 287 287 287 287 286 286 284 284 284 283 282 281 281 282 282 281
263 263 263 263 263 264 265 265 267 269 270 271 272 274 276 277 278 278 279 279 280 281 282 283 284 285 286 287 287 287 287 286 286 285 284 284 283 282 282 282 282 283 282
264 263 263 263 263 263 264 265 266 267 268 269 270 271 273 275 277 277 277 278 279 279 280 282 284 285 286 287 287 287 287 286 286 285 284 284 283 282 282 282 282 282 282
265 264 264 263 263 264 264 264 265 265 266 267 268 269 271 272 273 275 276 277 277 278 279 280 282 284 286 286 287 287 287 287 286 286 284 284 283 282 282 282 282 282 282
265 265 266 266 265 265 264 264 264 265 265 266 267 268 269 270 271 272 274 275 275 277 278 279 281 284 285 285 287 287 287 287 286 286 286 285 283 282 282 282 282 282 282
264 265 265 266 266 266 266 265 265 265 265 266 266 267 268 269 270 271 272 274 275 276 278 279 281 283 284 285 287 287 287 287 287 286 286 285 284 283 282 282 282 282 282
264 264 264 264 265 265 266 267 267 267 267 267 267 267 268 268 270 271 272 274 276 277 279 281 283 284 285 286 287 287 287 286 286 286 286 284 283 282 281 282 282 282 281
Wind_Speed
11 11 13 14 15 15 16 16 16 14 13 7 4 3 4 6 7 8 12 11 11 10 9 8 7 7 5 5 6 8 10 10 4 3 8 8 9 6 6 6 5 1 4
6 7 9 10 12 14 15 16 16 16 15 15 10 6 4 4 7 7 9 11 13 11 11 9 7 8 8 7 7 8 9 10 7 10 10 12 10 9 7 7 6 5 4
7 6 6 7 9 10 11 13 14 15 15 15 13 10 7 6 5 6 8 8 11 12 12 12 10 8 10 10 9 7 9 10 10 11 9 13 9 13 11 9 9 8 6
12 10 8 7 7 8 9 10 11 13 14 15 14 13 11 8 6 7 9 9 9 11 13 12 11 10 11 10 9 9 10 11 10 10 10 15 12 16 13 11 7 4 1
15 17 17 13 9 8 8 9 9 10 11 13 14 14 12 10 7 7 6 7 9 10 11 14 14 12 11 10 11 11 12 11 13 12 10 10 11 13 17 13 9 6 2
16 18 19 18 14 10 8 8 8 9 11 13 15 16 16 12 9 7 6 7 8 9 11 13 13 13 12 12 12 10 10 12 14 15 13 11 14 14 16 15 12 8 4
18 19 20 18 20 15 12 9 8 9 10 12 14 16 17 15 11 9 7 6 8 10 10 11 14 14 13 13 12 11 10 9 11 14 15 14 14 16 16 15 15 11 4
18 19 19 20 20 20 17 13 10 9 10 11 12 14 16 17 16 11 8 8 8 9 10 9 12 15 15 14 13 12 12 11 11 11 12 10 10 9 17 15 13 12 6
19 19 19 17 18 19 22 18 13 12 11 11 11 12 14 15 15 15 11 8 9 9 9 9 10 13 15 16 16 14 13 11 10 10 9 8 8 9 14 16 17 14 5
20 21 21 19 16 17 20 21 17 15 13 12 12 12 12 12 12 13 11 11 11 10 10 9 10 12 13 16 18 17 16 13 12 10 9 9 10 13 15 15 16 19 4
22 23 22 20 18 16 17 19 20 18 15 14 13 12 12 10 10 12 10 9 10 12 12 13 10 11 13 17 20 19 18 12 12 11 12 12 12 12 14 14 14 15 8
26 27 27 25 21 18 17 18 20 19 18 16 14 13 11 10 9 9 10 9 7 9 12 15 13 9 13 16 19 18 16 12 14 14 13 13 12 14 15 14 14 13 8
27 30 30 29 26 20 18 19 19 21 21 20 16 15 12 9 9 8 8 8 8 7 10 12 13 11 9 15 19 17 18 15 18 18 17 15 11 11 13 15 13 12 9
30 31 31 28 27 24 20 20 22 23 24 25 22 19 15 11 10 8 7 8 11 8 8 11 11 12 10 15 20 21 22 20 20 19 16 14 12 12 14 15 14 12 10
26 27 27 26 25 24 22 22 23 26 26 27 29 25 20 16 12 9 10 12 9 8 9 11 11 12 10 16 21 25 24 22 21 19 18 17 16 14 14 15 15 14 7
26 22 21 22 23 21 21 23 21 24 24 24 25 24 23 20 16 15 14 12 9 7 7 8 9 14 16 18 20 22 25 25 24 21 20 19 19 18 16 15 14 14 10
29 26 22 21 21 21 20 20 21 20 19 24 25 24 23 25 22 18 16 13 11 8 10 12 12 14 17 20 22 23 24 27 26 24 24 21 21 18 18 17 16 13 13
29 28 27 24 22 23 23 23 20 20 20 22 23 24 25 23 21 19 17 13 16 14 14 16 16 17 18 19 23 24 26 27 28 27 26 24 23 23 22 18 18 17 17
27 24 22 22 21 22 22 22 22 22 23 21 19 22 21 18 18 18 16 19 21 21 17 16 18 21 22 21 22 26 28 30 30 30 28 26 25 28 25 23 19 20 21
25 24 24 25 23 23 22 22 23 23 23 22 21 23 20 19 24 28 26 25 24 25 24 21 21 22 25 25 23 26 29 30 30 30 30 29 28 28 26 26 25 24 24
25 24 24 24 23 22 22 22 23 23 23 22 24 23 21 22 26 28 29 29 28 27 24 21 20 23 26 27 27 25 30 30 32 31 31 30 30 30 29 28 27 25 24
24 24 23 23 23 23 23 24 23 24 24 24 24 24 23 26 25 28 31 31 30 29 27 25 24 25 24 25 28 31 30 31 32 32 32 32 31 30 30 29 29 27 27
23 24 24 24 24 24 24 24 24 25 25 25 24 23 23 28 28 27 29 30 28 28 29 27 28 28 26 27 30 33 32 33 36 35 33 33 32 32 32 32 32 30 29
21 21 22 23 22 22 23 23 23 25 26 25 24 24 25 25 26 28 30 30 30 30 30 28 27 27 26 28 31 34 36 36 35 36 34 34 33 33 34 33 34 32 31
20 19 18 18 19 22 22 24 24 24 24 25 25 26 26 26 27 28 28 30 31 31 31 28 28 28 29 29 31 34 36 35 37 35 35 35 35 37 38 37 36 34 32
21 20 18 18 17 17 16 16 20 23 24 25 25 26 27 28 29 28 27 27 27 27 27 28 26 27 29 29 32 34 35 34 38 37 35 36 36 37 37 37 37 36 34
Wind_Direction
27 29 29 30 31 29 27 24 22 17 18 15 352 332 280 271 288 262 251 253 254 243 237 244 240 252 260 253 252 249 235 216 150 134 176 182 180 177 151 150 142 168 63
5 16 22 26 28 27 26 22 17 14 13 15 5 352 327 298 288 288 259 255 250 246 239 239 241 243 247 242 240 244 241 222 197 159 170 175 191 191 162 168 160 125 82
320 339 357 8 16 23 25 23 20 18 14 13 12 1 330 296 264 278 290 267 257 254 247 239 236 236 244 236 230 230 231 224 225 191 173 194 186 193 178 157 147 127 84
308 305 312 332 350 4 8 12 14 16 17 17 14 9 3 348 315 276 263 269 267 258 254 246 236 230 242 242 237 223 221 214 210 194 175 177 189 195 197 185 181 175 76
297 290 293 302 316 334 347 360 12 17 22 23 18 17 14 18 14 332 306 277 267 265 252 246 242 235 237 237 239 229 224 210 204 193 185 182 183 187 199 200 192 201 215
311 296 291 285 291 303 319 335 356 14 22 23 24 18 15 16 4 354 312 279 270 261 255 240 235 232 229 232 229 232 238 214 205 197 203 193 202 203 200 198 190 178 218
314 300 296 286 275 280 292 302 319 343 359 11 18 17 18 13 3 358 333 302 273 262 256 244 232 229 226 224 225 227 224 221 233 219 207 212 202 199 194 194 198 194 179
329 323 314 305 289 278 276 281 294 314 333 350 3 8 11 12 8 358 348 326 300 279 265 260 243 231 226 221 220 223 226 222 225 222 225 228 229 221 193 192 193 194 192
344 339 336 329 305 289 269 271 276 288 305 322 337 352 358 10 7 8 352 340 319 305 294 276 254 236 228 223 220 216 214 213 219 226 222 218 209 194 181 179 186 178 195
343 340 338 335 321 301 275 266 267 270 281 297 312 328 340 356 6 6 10 346 334 324 310 293 256 242 229 224 220 217 208 208 214 206 193 176 163 164 180 195 191 179 165
327 326 328 333 329 314 292 270 261 263 268 278 293 308 321 335 356 5 5 4 336 326 311 299 291 249 228 224 228 224 221 218 202 199 189 180 173 171 183 190 192 184 198
318 317 318 320 322 317 299 286 267 256 257 264 274 286 303 324 334 350 5 357 347 310 306 302 302 284 239 223 225 223 221 216 208 202 201 193 188 183 186 190 190 194 203
314 314 315 313 311 309 299 280 267 257 250 254 254 265 277 296 315 333 347 349 351 333 308 302 293 287 256 226 222 219 215 207 200 202 202 207 199 191 187 189 188 195 208
308 308 309 309 307 301 290 278 260 250 247 246 246 246 256 266 291 313 317 327 335 347 344 338 292 280 265 228 211 212 212 212 209 207 208 203 199 192 182 183 180 176 175
302 300 301 300 299 297 286 271 262 257 245 240 247 249 244 246 268 280 288 305 314 317 325 326 312 264 246 219 207 205 208 207 203 205 203 198 197 186 181 175 179 172 185
291 290 288 290 291 289 289 289 272 261 257 248 246 249 250 251 256 266 280 292 297 303 297 294 281 254 241 218 203 196 202 209 210 207 204 209 198 184 181 179 181 181 200
283 283 282 279 279 282 281 277 278 277 263 252 246 241 242 252 254 255 265 275 279 276 260 258 257 261 241 230 214 204 197 209 216 208 209 213 204 189 176 184 179 185 188
285 281 277 275 270 271 272 272 274 274 268 263 250 246 246 246 245 249 250 265 265 258 253 252 246 248 252 235 225 211 207 209 209 204 209 212 207 201 188 180 183 189 183
285 279 276 274 271 269 268 269 268 263 263 267 261 248 243 239 239 239 240 244 254 260 253 248 251 244 246 245 230 222 212 211 211 203 206 213 207 204 199 196 184 192 184
283 278 273 271 270 268 267 265 262 260 259 258 257 253 251 243 239 241 240 243 246 252 257 250 248 247 246 243 237 222 215 213 210 204 205 212 209 207 199 198 195 190 189
277 272 270 268 266 263 261 255 257 260 257 255 254 253 251 245 246 245 247 246 246 247 250 249 245 244 244 244 240 223 217 212 212 205 204 208 208 200 203 203 198 194 188
278 270 266 261 262 260 259 257 255 255 255 257 258 257 252 251 250 248 247 247 247 247 249 249 248 239 234 231 226 222 216 212 211 207 202 206 206 200 197 195 198 192 189
283 270 263 258 255 258 258 256 255 254 256 256 256 255 250 247 247 248 247 248 250 251 251 245 243 243 237 235 231 231 220 215 218 215 202 204 199 196 192 192 194 190 190
310 294 281 268 261 255 252 251 250 252 252 254 253 251 249 247 246 246 248 249 254 253 250 246 239 236 234 232 225 233 233 226 222 221 217 208 199 193 188 192 192 194 190
331 324 318 310 282 261 259 251 249 250 249 249 250 248 249 249 248 248 248 248 250 247 247 245 240 237 233 229 222 229 232 227 222 222 215 211 202 198 193 191 191 191 188
341 338 331 325 319 314 307 286 261 250 247 245 244 244 245 245 246 246 246 241 239 239 237 233 232 236 237 233 228 232 230 229 223 220 213 204 197 190 189 189 189 187 183